Atka, AK

8:55 PM HDT on May 26, 2018 (GMT -0900)
Atka

Weather History for PAAK - November, 2014

Change the Weather History Date:

Friday, November 7, 2014

  Actual Average (PADK) Record (PADK)
Temperature  
Mean Temperature 40 °F -  
Max Temperature 46 °F 43 °F 53 °F (2015)
Min Temperature 35 °F 33 °F 27 °F (1983)
Degree Days  
Heating Degree Days 24    
Moisture  
Dew Point 33 °F    
Average Humidity 73    
Maximum Humidity 87    
Minimum Humidity 53    
Precipitation  
Precipitation 0.00 in - - ()
Sea Level Pressure  
Sea Level Pressure 29.37 in    
Wind  
Wind Speed 14 mph (SSW)    
Max Wind Speed 33 mph    
Max Gust Speed 48 mph    
Visibility 8 miles    
Events      
Averages and records for this station are not official NWS values.
T = Trace of Precipitation, MM = Missing Value Source: NWS Daily Summary

Daily Weather History Graph

Daily Weather History Graph

Search for Another Location

Airport or City:

Astronomy

Nov. 07, 2014 Rise Set
Actual Time 8:43 AM HST 5:56 PM HST
Civil Twilight 8:07 AM HST 6:33 PM HST
Nautical Twilight 7:26 AM HST 7:13 PM HST
Astronomical Twilight 6:46 AM HST 7:53 PM HST
Moon 6:56 PM HST (11/7) 9:36 AM HST (11/7)
Length of Visible Light 10h 26m
Length of Day
9h 12m
Full, 99% of the Moon is Illuminated
Nov 7
Full
Nov 14
Last Quarter
Nov 22
New
Nov 29
First Quarter
Dec 6
Full

Hourly Weather History & Observations

Time (HST) Temp. Windchill Dew Point Humidity Pressure Visibility Wind Dir Wind Speed Gust Speed Precip Events Conditions
12:16 AM 41.0 °F 31.9 °F 28.4 °F 61% 29.72 in 10.0 mi West 19.6 mph 24.2 mph N/A   Overcast
12:36 AM 41.0 °F 32.5 °F 28.4 °F 61% 29.72 in 10.0 mi West 17.3 mph 20.7 mph N/A   Overcast
12:56 AM 41.0 °F 32.8 °F 28.4 °F 61% 29.71 in 10.0 mi West 16.1 mph 24.2 mph N/A   Overcast
1:16 AM 39.2 °F 31.6 °F 30.2 °F 70% 29.71 in 10.0 mi West 12.7 mph - N/A   Overcast
1:36 AM 39.2 °F 31.2 °F 30.2 °F 70% 29.72 in 10.0 mi West 13.8 mph 21.9 mph N/A   Mostly Cloudy
1:56 AM 41.0 °F 33.9 °F 32.0 °F 70% 29.72 in 10.0 mi West 12.7 mph - N/A   Mostly Cloudy
2:16 AM 39.2 °F 32.0 °F 32.0 °F 75% 29.73 in 10.0 mi West 11.5 mph - N/A   Overcast
2:36 AM 39.2 °F 32.5 °F 30.2 °F 70% 29.74 in 10.0 mi West 10.4 mph - N/A   Mostly Cloudy
2:56 AM 39.2 °F 33.6 °F 30.2 °F 70% 29.74 in 10.0 mi West 8.1 mph - N/A   Overcast
3:16 AM 39.2 °F 34.2 °F 32.0 °F 75% 29.73 in 10.0 mi West 6.9 mph - N/A   Overcast
3:36 AM 41.0 °F 34.7 °F 33.8 °F 76% 29.74 in 10.0 mi West 10.4 mph - N/A   Overcast
3:56 AM 41.0 °F 34.3 °F 32.0 °F 70% 29.74 in 10.0 mi West 11.5 mph - N/A   Mostly Cloudy
4:16 AM 39.2 °F 33.0 °F 32.0 °F 75% 29.74 in 10.0 mi WSW 9.2 mph - N/A   Mostly Cloudy
4:36 AM 37.4 °F 30.3 °F 30.2 °F 75% 29.73 in 10.0 mi SW 10.4 mph - N/A   Mostly Cloudy
4:56 AM 39.2 °F 32.5 °F 32.0 °F 75% 29.72 in 10.0 mi WSW 10.4 mph - N/A   Mostly Cloudy
5:16 AM 37.4 °F 30.3 °F 30.2 °F 75% 29.71 in 10.0 mi WSW 10.4 mph - N/A   Partly Cloudy
5:36 AM 37.4 °F 30.8 °F 30.2 °F 75% 29.70 in 10.0 mi WSW 9.2 mph - N/A   Clear
5:56 AM 37.4 °F 29.8 °F 30.2 °F 75% 29.69 in 10.0 mi WSW 11.5 mph - N/A   Clear
6:16 AM 37.4 °F 30.3 °F 28.4 °F 70% 29.70 in 10.0 mi SW 10.4 mph - N/A   Clear
6:36 AM 37.4 °F 31.4 °F 28.4 °F 70% 29.69 in 10.0 mi WSW 8.1 mph - N/A   Clear
6:56 AM 37.4 °F 30.8 °F 28.4 °F 70% 29.68 in 10.0 mi SW 9.2 mph - N/A   Clear
7:16 AM 35.6 °F - 26.6 °F 70% 29.67 in 10.0 mi Calm Calm - N/A   Clear
7:36 AM 35.6 °F - 28.4 °F 75% 29.66 in 10.0 mi Calm Calm - N/A   Clear
7:56 AM 35.6 °F - 28.4 °F 75% 29.65 in 10.0 mi Calm Calm - N/A   Clear
8:16 AM 35.6 °F - 28.4 °F 75% 29.64 in 10.0 mi Calm Calm - N/A   Clear
8:36 AM 35.6 °F - 28.4 °F 75% 29.63 in 10.0 mi Calm Calm - N/A   Clear
8:56 AM 37.4 °F - 30.2 °F 75% 29.62 in 10.0 mi Calm Calm - N/A   Mostly Cloudy
9:16 AM 37.4 °F 32.8 °F 30.2 °F 75% 29.62 in 10.0 mi South 5.8 mph 26.5 mph N/A   Mostly Cloudy
9:36 AM 39.2 °F 35.9 °F 33.8 °F 81% 29.61 in 10.0 mi South 4.6 mph - N/A   Partly Cloudy
9:56 AM 37.4 °F 34.9 °F 33.8 °F 87% 29.60 in 10.0 mi South 3.5 mph - N/A   Mostly Cloudy
10:16 AM 41.0 °F 33.9 °F 33.8 °F 76% 29.56 in 10.0 mi SE 12.7 mph - N/A   Mostly Cloudy
10:36 AM 42.8 °F 37.5 °F 35.6 °F 76% 29.53 in 10.0 mi SE 9.2 mph - N/A   Mostly Cloudy
10:56 AM 42.8 °F 36.2 °F 33.8 °F 70% 29.51 in 10.0 mi SE 12.7 mph 23.0 mph N/A   Scattered Clouds
11:16 AM 42.8 °F 37.0 °F 35.6 °F 76% 29.49 in 10.0 mi SSE 10.4 mph 19.6 mph N/A   Mostly Cloudy
11:36 AM 42.8 °F 35.1 °F 33.8 °F 70% 29.48 in 10.0 mi SSE 16.1 mph 21.9 mph N/A   Overcast
11:56 AM 42.8 °F 34.8 °F 35.6 °F 76% 29.45 in 10.0 mi SE 17.3 mph 23.0 mph N/A   Overcast
12:16 PM 42.8 °F 34.3 °F 35.6 °F 76% 29.44 in 10.0 mi SE 19.6 mph 25.3 mph N/A   Overcast
12:36 PM 42.8 °F 34.8 °F 35.6 °F 76% 29.42 in 10.0 mi SE 17.3 mph 25.3 mph N/A   Overcast
12:56 PM 44.6 °F 36.9 °F 35.6 °F 71% 29.40 in 10.0 mi SSE 18.4 mph 29.9 mph N/A   Overcast
1:16 PM 42.8 °F 34.0 °F 35.6 °F 76% 29.38 in 8.0 mi SSE 20.7 mph 26.5 mph N/A   Overcast
1:36 PM 42.8 °F 32.5 °F 35.6 °F 76% 29.34 in 5.0 mi SE 28.8 mph 33.4 mph N/A   Overcast
2:16 PM 42.8 °F 34.0 °F 35.6 °F 76% 29.30 in 3.0 mi SSE 20.7 mph 36.8 mph N/A   Overcast
2:36 PM 42.8 °F 34.0 °F 35.6 °F 76% 29.27 in 5.0 mi SSE 20.7 mph 29.9 mph N/A   Overcast
2:56 PM 42.8 °F 34.5 °F 37.4 °F 81% 29.24 in 3.0 mi SSE 18.4 mph 34.5 mph N/A   Overcast
3:16 PM 42.8 °F 33.1 °F 37.4 °F 81% 29.21 in 3.0 mi South 25.3 mph 36.8 mph N/A   Overcast
3:36 PM 42.8 °F 32.1 °F 37.4 °F 81% 29.16 in 3.0 mi SSE 31.1 mph 47.2 mph N/A   Overcast
3:56 PM 42.8 °F 32.3 °F 37.4 °F 81% 29.15 in 1.8 mi SSE 29.9 mph 41.4 mph N/A   Overcast
4:16 PM 42.8 °F 32.7 °F 37.4 °F 81% 29.11 in 1.2 mi SE 27.6 mph 43.7 mph N/A   Overcast
4:36 PM 42.8 °F 32.1 °F 37.4 °F 81% 29.10 in 1.0 mi SSE 31.1 mph 41.4 mph N/A   Overcast
4:56 PM 42.8 °F 33.3 °F 39.2 °F 87% 29.08 in 0.8 mi SE 24.2 mph 48.3 mph N/A   Overcast
5:16 PM 44.6 °F 36.4 °F 39.2 °F 81% 29.04 in 0.8 mi SE 20.7 mph 39.1 mph N/A   Overcast
5:36 PM 44.6 °F 34.6 °F 39.2 °F 81% 29.01 in 0.8 mi SE 31.1 mph 42.6 mph N/A   Overcast
5:56 PM 44.6 °F 34.9 °F 39.2 °F 81% 28.97 in 0.8 mi SSE 28.8 mph 46.0 mph N/A   Overcast
6:16 PM 46.4 °F 37.9 °F 41.0 °F 81% 28.95 in 1.5 mi South 25.3 mph 43.7 mph N/A   Overcast
6:36 PM 46.4 °F 36.7 °F 41.0 °F 81% 28.93 in 1.5 mi SSE 33.4 mph 41.4 mph N/A   Overcast
6:56 PM 46.4 °F 37.4 °F 42.8 °F 87% 28.91 in 2.0 mi South 28.8 mph 43.7 mph N/A   Overcast
7:16 PM 46.4 °F 39.8 °F 42.8 °F 87% 28.89 in 10.0 mi SW 16.1 mph 25.3 mph N/A   Mostly Cloudy
7:36 PM 46.4 °F 39.0 °F 39.2 °F 76% 28.90 in 9.0 mi West 19.6 mph 24.2 mph N/A   Mostly Cloudy
7:56 PM 44.6 °F 37.8 °F 35.6 °F 71% 28.91 in 10.0 mi West 15.0 mph 19.6 mph N/A   Partly Cloudy
8:16 PM 46.4 °F 39.5 °F 35.6 °F 66% 28.91 in 10.0 mi West 17.3 mph 23.0 mph N/A   Mostly Cloudy
8:36 PM 46.4 °F 38.7 °F 35.6 °F 66% 28.92 in 10.0 mi West 20.7 mph 26.5 mph N/A   Mostly Cloudy
8:56 PM 44.6 °F 37.2 °F 33.8 °F 66% 28.93 in 10.0 mi West 17.3 mph 26.5 mph N/A   Scattered Clouds
9:16 PM 44.6 °F 38.4 °F 33.8 °F 66% 28.94 in 9.0 mi West 12.7 mph - N/A   Scattered Clouds
9:36 PM 42.8 °F 37.0 °F 30.2 °F 61% 28.95 in 10.0 mi WSW 10.4 mph 18.4 mph N/A   Mostly Cloudy
9:56 PM 42.8 °F 36.2 °F 30.2 °F 61% 28.96 in 9.0 mi WSW 12.7 mph 18.4 mph N/A   Scattered Clouds
10:16 PM 42.8 °F 36.2 °F 28.4 °F 57% 28.97 in 10.0 mi WSW 12.7 mph 17.3 mph N/A   Partly Cloudy
10:36 PM 41.0 °F 35.2 °F 28.4 °F 61% 28.97 in 10.0 mi West 9.2 mph 17.3 mph N/A   Scattered Clouds
10:56 PM 42.8 °F 37.5 °F 28.4 °F 57% 28.97 in 9.0 mi SW 9.2 mph - N/A   Overcast
11:16 PM 42.8 °F 36.6 °F 28.4 °F 57% 28.98 in 9.0 mi SW 11.5 mph - N/A   Overcast
11:36 PM 41.0 °F 35.8 °F 26.6 °F 57% 28.98 in 9.0 mi West 8.1 mph - N/A   Overcast
11:56 PM 42.8 °F 35.8 °F 26.6 °F 53% 28.98 in 10.0 mi WSW 13.8 mph 18.4 mph N/A   Overcast